TimeCDT,TemperatureF,Dew PointF,Humidity,Sea Level PressureIn,VisibilityMPH,Wind Direction,Wind SpeedMPH,Gust SpeedMPH,PrecipitationIn,Events,Conditions,WindDirDegrees,DateUTC
12:15 AM,52.0,50.2,94,30.24,10.0,Calm,Calm,-,N/A,,Clear,0,2013-09-06 05:15:00
12:35 AM,51.3,49.8,95,30.24,10.0,Calm,Calm,-,N/A,,Clear,0,2013-09-06 05:35:00
12:55 AM,51.1,49.3,94,30.24,10.0,Calm,Calm,-,N/A,,Clear,0,2013-09-06 05:55:00
1:15 AM,50.4,48.2,92,30.24,10.0,Calm,Calm,-,N/A,,Clear,0,2013-09-06 06:15:00
1:35 AM,53.4,48.6,84,30.24,10.0,Calm,Calm,-,N/A,,Clear,0,2013-09-06 06:35:00
1:55 AM,51.3,48.6,90,30.24,10.0,Calm,Calm,-,N/A,,Clear,0,2013-09-06 06:55:00
2:15 AM,49.8,48.0,94,30.24,10.0,East,3.5,-,N/A,,Clear,100,2013-09-06 07:15:00
2:35 AM,50.2,48.0,92,30.24,10.0,Calm,Calm,-,N/A,,Clear,0,2013-09-06 07:35:00
2:55 AM,51.3,47.5,87,30.24,10.0,Calm,Calm,-,N/A,,Clear,0,2013-09-06 07:55:00
3:15 AM,51.1,48.0,89,30.24,10.0,Calm,Calm,-,N/A,,Scattered Clouds,0,2013-09-06 08:15:00
3:35 AM,49.5,47.5,93,30.25,10.0,Calm,Calm,-,N/A,,Scattered Clouds,0,2013-09-06 08:35:00
3:55 AM,50.5,45.7,83,30.25,10.0,Calm,Calm,-,N/A,,Clear,0,2013-09-06 08:55:00
4:15 AM,48.4,45.7,90,30.25,10.0,Calm,Calm,-,N/A,,Clear,0,2013-09-06 09:15:00
4:35 AM,47.3,45.9,95,30.25,10.0,Calm,Calm,-,N/A,,Clear,0,2013-09-06 09:35:00
4:55 AM,50.0,47.1,90,30.25,10.0,Calm,Calm,-,N/A,,Scattered Clouds,0,2013-09-06 09:55:00
5:15 AM,48.4,46.2,92,30.25,10.0,Calm,Calm,-,N/A,,Clear,0,2013-09-06 10:15:00
5:35 AM,48.0,45.5,91,30.25,10.0,Calm,Calm,-,N/A,,Clear,0,2013-09-06 10:35:00
5:55 AM,49.1,46.4,90,30.26,10.0,East,3.5,-,N/A,,Scattered Clouds,80,2013-09-06 10:55:00
6:15 AM,49.1,46.9,92,30.26,10.0,East,3.5,-,N/A,,Scattered Clouds,90,2013-09-06 11:15:00
6:35 AM,49.1,47.7,95,30.26,10.0,Calm,Calm,-,N/A,,Scattered Clouds,0,2013-09-06 11:35:00
6:55 AM,50.0,47.5,91,30.26,10.0,Calm,Calm,-,N/A,,Scattered Clouds,0,2013-09-06 11:55:00
7:15 AM,52.7,49.1,88,30.27,10.0,East,3.5,-,N/A,,Overcast,90,2013-09-06 12:15:00
7:35 AM,53.8,49.8,86,30.26,10.0,ESE,4.6,-,N/A,,Scattered Clouds,110,2013-09-06 12:35:00
7:55 AM,55.2,50.0,83,30.26,10.0,Calm,Calm,-,N/A,,Scattered Clouds,0,2013-09-06 12:55:00
8:15 AM,57.0,49.8,77,30.25,10.0,SE,3.5,-,N/A,,Scattered Clouds,130,2013-09-06 13:15:00
8:35 AM,59.9,50.2,70,30.25,10.0,SSE,5.8,-,N/A,,Unknown,160,2013-09-06 13:35:00
8:55 AM,61.5,50.4,67,30.24,10.0,SE,5.8,-,N/A,,Scattered Clouds,130,2013-09-06 13:55:00
9:15 AM,63.1,50.2,63,30.25,10.0,SSE,8.1,-,N/A,,Clear,160,2013-09-06 14:15:00
9:35 AM,64.9,50.7,60,30.24,10.0,SSE,4.6,-,N/A,,Clear,150,2013-09-06 14:35:00
9:55 AM,66.4,50.7,57,30.24,10.0,South,4.6,-,N/A,,Clear,180,2013-09-06 14:55:00
10:15 AM,68.0,50.5,54,30.24,10.0,South,6.9,-,N/A,,Clear,190,2013-09-06 15:15:00
10:35 AM,69.8,49.6,49,30.23,10.0,SSE,5.8,-,N/A,,Clear,160,2013-09-06 15:35:00
10:55 AM,71.2,49.6,46,30.23,10.0,NE,6.9,-,N/A,,Clear,50,2013-09-06 15:55:00
11:15 AM,73.0,50.0,44,30.22,10.0,SSE,3.5,-,N/A,,Clear,160,2013-09-06 16:15:00
11:35 AM,73.8,49.6,43,30.22,10.0,SSW,5.8,-,N/A,,Clear,200,2013-09-06 16:35:00
11:55 AM,74.8,48.6,39,30.22,10.0,SW,6.9,-,N/A,,Clear,220,2013-09-06 16:55:00
12:15 PM,76.1,49.8,40,30.21,10.0,SSW,5.8,-,N/A,,Clear,210,2013-09-06 17:15:00
12:35 PM,77.0,50.2,39,30.20,10.0,South,4.6,-,N/A,,Scattered Clouds,170,2013-09-06 17:35:00
12:55 PM,77.4,51.8,41,30.20,10.0,SW,6.9,-,N/A,,Scattered Clouds,230,2013-09-06 17:55:00
1:15 PM,77.9,52.5,41,30.19,10.0,SSW,5.8,-,N/A,,Clear,200,2013-09-06 18:15:00
1:35 PM,77.7,53.2,43,30.18,10.0,Calm,Calm,-,N/A,,Mostly Cloudy,0,2013-09-06 18:35:00
1:55 PM,77.9,54.9,45,30.17,10.0,SW,4.6,-,N/A,,Overcast,220,2013-09-06 18:55:00
2:15 PM,78.1,56.1,47,30.16,10.0,SSW,4.6,-,N/A,,Mostly Cloudy,200,2013-09-06 19:15:00
2:35 PM,79.7,56.7,45,30.15,10.0,South,4.6,-,N/A,,Scattered Clouds,180,2013-09-06 19:35:00
2:55 PM,79.9,57.4,46,30.15,10.0,SW,4.6,-,N/A,,Clear,220,2013-09-06 19:55:00
3:15 PM,80.1,57.2,45,30.14,10.0,SW,5.8,-,N/A,,Scattered Clouds,230,2013-09-06 20:15:00
3:35 PM,81.0,57.7,45,30.13,10.0,SSW,4.6,-,N/A,,Scattered Clouds,210,2013-09-06 20:35:00
3:55 PM,80.6,58.8,47,30.13,10.0,SSW,4.6,-,N/A,,Clear,200,2013-09-06 20:55:00
4:15 PM,79.7,59.5,50,30.12,10.0,WSW,4.6,-,N/A,,Clear,240,2013-09-06 21:15:00
4:35 PM,79.7,58.6,48,30.12,10.0,SSW,3.5,-,N/A,,Clear,200,2013-09-06 21:35:00
4:55 PM,79.7,59.4,50,30.11,10.0,SW,3.5,-,N/A,,Clear,220,2013-09-06 21:55:00
5:15 PM,79.0,59.9,52,30.12,10.0,Calm,Calm,-,N/A,,Clear,0,2013-09-06 22:15:00
5:35 PM,78.1,60.4,54,30.11,10.0,Calm,Calm,-,N/A,,Scattered Clouds,0,2013-09-06 22:35:00
5:55 PM,77.5,61.0,57,30.11,10.0,Calm,Calm,-,N/A,,Mostly Cloudy,0,2013-09-06 22:55:00
6:15 PM,77.9,61.3,57,30.11,10.0,SE,3.5,-,N/A,,Mostly Cloudy,140,2013-09-06 23:15:00
6:35 PM,77.0,61.7,59,30.10,10.0,Calm,Calm,-,N/A,,Overcast,0,2013-09-06 23:35:00
6:55 PM,74.7,63.0,67,30.10,10.0,Calm,Calm,-,N/A,,Scattered Clouds,0,2013-09-06 23:55:00
7:15 PM,72.3,62.6,71,30.09,10.0,Calm,Calm,-,N/A,,Clear,0,2013-09-07 00:15:00
7:35 PM,71.1,61.9,73,30.09,10.0,ESE,3.5,-,N/A,,Scattered Clouds,120,2013-09-07 00:35:00
7:55 PM,68.0,63.3,85,30.09,10.0,ESE,3.5,-,N/A,,Clear,110,2013-09-07 00:55:00
8:15 PM,68.5,62.6,81,30.10,10.0,Calm,Calm,-,N/A,,Clear,0,2013-09-07 01:15:00
8:35 PM,69.1,62.1,78,30.10,10.0,Calm,Calm,-,N/A,,Clear,0,2013-09-07 01:35:00
8:55 PM,68.4,61.5,79,30.10,10.0,Calm,Calm,-,N/A,,Clear,0,2013-09-07 01:55:00
9:15 PM,68.7,60.8,76,30.09,10.0,South,4.6,-,N/A,,Clear,170,2013-09-07 02:15:00
9:35 PM,69.1,60.1,73,30.09,10.0,SSE,4.6,-,N/A,,Clear,160,2013-09-07 02:35:00
9:55 PM,68.4,59.9,74,30.08,10.0,SSE,3.5,-,N/A,,Clear,160,2013-09-07 02:55:00
10:15 PM,68.4,59.9,74,30.08,10.0,South,4.6,-,N/A,,Clear,170,2013-09-07 03:15:00
10:35 PM,68.2,59.5,74,30.08,10.0,South,4.6,-,N/A,,Clear,170,2013-09-07 03:35:00
10:55 PM,67.1,59.5,77,30.07,10.0,South,3.5,-,N/A,,Clear,170,2013-09-07 03:55:00
11:15 PM,66.4,59.7,79,30.07,10.0,Calm,Calm,-,N/A,,Clear,0,2013-09-07 04:15:00
11:35 PM,64.9,59.9,84,30.07,10.0,Calm,Calm,-,N/A,,Clear,0,2013-09-07 04:35:00
11:55 PM,64.9,59.5,83,30.07,10.0,South,3.5,-,N/A,,Scattered Clouds,170,2013-09-07 04:55:00